Regional Weather Roundup
Issued by NWS

Home | Current Version | Previous Version | Text Only | Print | Product List | Glossary On
Versions: 1 2 3 4 5 6 7 8 9 10 11 12 13 14 15 16 17 18 19 20 21 22 23 24 25 26 27 28 29 30 31 32 33 34 35 36 37 38 39 40 41 42 43 44 45 46 47 48 49 50
000
ASUS43 KOAX 301410
RWRNE

WEATHER ROUNDUP FOR NEBRASKA
NATIONAL WEATHER SERVICE OMAHA NE
900 AM CDT MON MAY 30 2016

NOTES: SATELLITE DATA IS BEING USED TO AUGMENT CLOUD COVER ABOVE
       12000 FEET.
       "FAIR" INDICATES FEW OR NO CLOUDS BELOW 12,000 FEET WITH NO
       SIGNIFICANT WEATHER AND/OR OBSTRUCTIONS TO VISIBILITY.

  * THESE STATIONS DO NOT REPORT WEATHER SUCH AS RAIN...SNOW OR FOG.

NEZ001>004-019>022-054>056-301500-
NEBRASKA PANHANDLE

CITY           SKY/WX    TMP DP  RH WIND       PRES   REMARKS
SCOTTSBLUFF    SUNNY     60  51  72 NW3       29.98S
ALLIANCE       SUNNY     60  52  74 SW8       29.97S
CHADRON        CLOUDY    62  52  69 CALM      29.92F
KIMBALL        SUNNY     60  50  70 SW8       30.03F
SIDNEY         SUNNY     61  51  70 W7        30.02R
$$

NEZ057>060-069>072-079>082-301500-
SOUTHWEST NEBRASKA

CITY           SKY/WX    TMP DP  RH WIND       PRES   REMARKS
NORTH PLATTE   MOSUNNY   63  54  72 SE7       30.01F
IMPERIAL       SUNNY     62  52  69 SW6       30.01R
LEXINGTON      SUNNY     66  55  67 CALM      30.01F
MCCOOK         SUNNY     66  54  65 S3        30.00S
OGALLALA       SUNNY     63  50  64 CALM      30.00S
$$

NEZ005>010-023>029-035>040-094-301500-
NORTH CENTRAL NEBRASKA

CITY           SKY/WX    TMP DP  RH WIND       PRES   REMARKS
VALENTINE      CLOUDY    67  53  61 SE12      29.96S
AINSWORTH      CLOUDY    66  57  74 SE8       29.99S
BROKEN BOW     SUNNY     64  56  75 SE6       30.01F
O`NEILL        PTSUNNY   66  59  77 S8        30.00F
ORD            MOSUNNY   64  56  75 S3        30.00F
THEDFORD       MOSUNNY   67  55  63 SE10      30.00S
$$

NEZ041-046>049-061>064-073>077-083>087-301500-
SOUTH CENTRAL NEBRASKA

CITY           SKY/WX    TMP DP  RH WIND       PRES   REMARKS
GRAND ISLAND   SUNNY     67  55  65 CALM      30.01S
AURORA         CLOUDY    66  56  68 SE3       30.01R
HASTINGS       MOSUNNY   65  56  72 SE3       30.01R
HEBRON         MOSUNNY   70  62  75 SE6       30.01S
HOLDREGE       MOSUNNY   68  56  64 SW3       30.00S
KEARNEY *      PTSUNNY   66  55  68 CALM      30.00F
YORK           CLOUDY    66  57  72 CALM      30.01S
$$

NEZ011>018-030>034-042>045-301500-
NORTHEAST NEBRASKA

CITY           SKY/WX    TMP DP  RH WIND       PRES   REMARKS
NORFOLK        MOSUNNY   69  58  67 SE9       30.00F
ALBION         CLOUDY    69  56  62 S5        30.01F
BLAIR          MOSUNNY   73  62  68 S5        30.02F
FREMONT        MOSUNNY   73  58  59 S3        30.01F
TEKAMAH        SUNNY     73  57  57 CALM      30.00F
WAYNE          SUNNY     70  57  63 SE10      30.01F
$$

NEZ050>053-065>068-078-088>093-301500-
SOUTHEAST NEBRASKA

CITY           SKY/WX    TMP DP  RH WIND       PRES   REMARKS
LINCOLN        PTSUNNY   69  59  70 E3        30.02S
OMAHA EPPLEY   PTSUNNY   74  64  71 CALM      30.00F
BEATRICE       MOSUNNY   73  61  66 S8        30.01F
FALLS CITY     SUNNY     75  66  73 S7        30.02R
NEBRASKA CITY  SUNNY     73  61  65 S5        30.02F
PLATTSMOUTH    SUNNY     73  63  70 CALM      30.03S
$$

NEZ044-045-051>053-067-301500-
OMAHA AREA

CITY           SKY/WX    TMP DP  RH WIND       PRES   REMARKS
OMAHA EPPLEY   PTSUNNY   74  64  71 CALM      30.00F
BLAIR          MOSUNNY   73  62  68 S5        30.02F
FREMONT        MOSUNNY   73  58  59 S3        30.01F
MILLARD        MOSUNNY   74  62  66 CALM      30.01F
OFFUTT AFB     MOSUNNY   72  62  71 SW1       30.01S
PLATTSMOUTH    SUNNY     73  63  70 CALM      30.03S
WAHOO          FAIR      72  62  71 CALM      30.00F
$$




USA.gov is the U.S. government's official web portal to all federal, state and local government web resources and services.